UAL163 OMDB-KEWR

Flight info

Callsign UAL163
Flight time N/A
Altitude 28000
Route RIDAP M557 TUMAK L602 RALKA/N0497F300 L602 TASMI DCT ODALI UL852 NEGEM DCT TEGRI/N0487F320 DCT ABETI DCT SNU DCT RENKA DCT MAMOR DCT PETIX DCT TUSUK DCT ADKUV DCT BUB L608 DENUT L610 KOPUL Q60 OKSAW DCT FELCA DCT OFSOX DCT SLANY DCT MALOT/M083F340 DCT 54N020W 54N030W 54N040W 53N050W DCT RIKAL/N0475F340 N576B ANATI/N0470F360 DCT IMORI DCT HANAA FLOSI4
Aircraft B77W/H-SDE1E2E3FGHIJ2J3J4J5M1RWXY/LB1D1

Departure

Time N/A
Airport Dubai International Airport (OMDB)

Arrival

Time 2026-05-05 00:09
Airport Newark Liberty International Airport (KEWR)
Time Latitude Longitude Altitude Speed Heading
2026-05-04 23:18 45.55152 -72.30828 29756 ft 467 kts 209°
2026-05-04 23:19 45.49127 -72.34313 29754 ft 467 kts 209°
2026-05-04 23:19 45.43105 -72.37785 29754 ft 468 kts 209°
2026-05-04 23:20 45.37070 -72.41259 29744 ft 468 kts 209°
2026-05-04 23:20 45.31029 -72.44727 29762 ft 468 kts 209°
2026-05-04 23:21 45.24983 -72.48190 29759 ft 468 kts 209°
2026-05-04 23:21 45.18944 -72.51642 29735 ft 469 kts 209°
2026-05-04 23:22 45.12890 -72.55093 29748 ft 469 kts 209°
2026-05-04 23:22 45.06820 -72.58547 29753 ft 470 kts 209°
2026-05-04 23:23 45.00743 -72.61997 29729 ft 471 kts 208°
2026-05-04 23:23 44.94660 -72.65440 29742 ft 472 kts 208°
2026-05-04 23:24 44.88566 -72.68883 29748 ft 473 kts 208°
2026-05-04 23:24 44.82439 -72.72339 29726 ft 474 kts 208°
2026-05-04 23:25 44.76315 -72.75782 29738 ft 475 kts 208°
2026-05-04 23:25 44.70184 -72.79220 29713 ft 474 kts 208°
2026-05-04 23:26 44.64066 -72.82644 29731 ft 473 kts 208°
2026-05-04 23:26 44.57986 -72.86043 29743 ft 474 kts 208°
2026-05-04 23:27 44.51859 -72.89459 29735 ft 474 kts 208°
2026-05-04 23:27 44.45726 -72.92867 29734 ft 473 kts 208°
2026-05-04 23:28 44.39612 -72.96258 29748 ft 472 kts 208°
2026-05-04 23:28 44.33510 -72.99638 29743 ft 472 kts 208°
2026-05-04 23:29 44.27395 -73.03013 29744 ft 471 kts 208°
2026-05-04 23:29 44.21293 -73.06376 29734 ft 472 kts 208°
2026-05-04 23:30 44.15180 -73.09739 29732 ft 472 kts 208°
2026-05-04 23:30 44.09067 -73.13092 29733 ft 472 kts 208°
2026-05-04 23:31 44.02969 -73.16429 29751 ft 472 kts 208°
2026-05-04 23:31 43.96852 -73.19771 29748 ft 472 kts 207°
2026-05-04 23:32 43.90743 -73.23101 29748 ft 472 kts 207°
2026-05-04 23:32 43.84617 -73.26433 29753 ft 473 kts 207°
2026-05-04 23:33 43.78484 -73.29761 29756 ft 474 kts 207°
2026-05-04 23:33 43.72346 -73.33084 29747 ft 474 kts 207°
2026-05-04 23:34 43.66206 -73.36400 29753 ft 474 kts 207°
2026-05-04 23:34 43.60076 -73.39706 29753 ft 473 kts 207°
2026-05-04 23:35 43.53932 -73.43011 29767 ft 473 kts 207°
2026-05-04 23:35 43.47792 -73.46307 29754 ft 473 kts 207°
2026-05-04 23:36 43.41696 -73.49575 29769 ft 473 kts 207°
2026-05-04 23:36 43.35563 -73.52856 29766 ft 473 kts 207°
2026-05-04 23:37 43.29412 -73.56140 29769 ft 474 kts 207°
2026-05-04 23:37 43.23261 -73.59421 29773 ft 474 kts 207°
2026-05-04 23:38 43.17063 -73.62588 29778 ft 476 kts 204°
2026-05-04 23:38 43.10719 -73.65239 29761 ft 478 kts 201°
2026-05-04 23:39 43.04347 -73.67826 29758 ft 475 kts 202°
2026-05-04 23:39 43.01188 -73.69139 29507 ft 476 kts 202°
2026-05-04 23:39 42.98021 -73.70472 28945 ft 476 kts 202°
2026-05-04 23:40 42.94858 -73.71811 28003 ft 478 kts 202°
2026-05-04 23:40 42.91675 -73.73161 27090 ft 479 kts 202°
2026-05-04 23:40 42.88495 -73.74507 26193 ft 479 kts 202°
2026-05-04 23:40 42.85310 -73.75853 25307 ft 479 kts 202°
2026-05-04 23:41 42.82172 -73.77177 24471 ft 478 kts 202°
2026-05-04 23:41 42.78995 -73.78515 23653 ft 477 kts 202°
2026-05-04 23:41 42.75825 -73.79846 22756 ft 476 kts 201°
2026-05-04 23:41 42.72675 -73.81184 21845 ft 473 kts 202°
2026-05-04 23:42 42.69579 -73.82551 21311 ft 453 kts 202°
2026-05-04 23:42 42.66651 -73.83862 21030 ft 437 kts 203°
2026-05-04 23:42 42.63796 -73.85151 20748 ft 427 kts 203°
2026-05-04 23:42 42.60963 -73.86436 20294 ft 430 kts 203°
2026-05-04 23:43 42.58132 -73.87718 19794 ft 427 kts 203°
2026-05-04 23:43 42.55327 -73.88980 19305 ft 421 kts 202°
2026-05-04 23:43 42.52564 -73.90217 18765 ft 417 kts 202°
2026-05-04 23:43 42.49806 -73.91451 18047 ft 417 kts 202°
2026-05-04 23:44 42.47050 -73.92684 17241 ft 417 kts 202°
2026-05-04 23:44 42.44288 -73.93918 16466 ft 417 kts 202°
2026-05-04 23:44 42.41532 -73.95147 15721 ft 416 kts 202°
2026-05-04 23:44 42.38787 -73.96369 14985 ft 415 kts 202°
2026-05-04 23:45 42.36056 -73.97583 14477 ft 409 kts 202°
2026-05-04 23:45 42.33373 -73.98775 13997 ft 402 kts 202°
2026-05-04 23:45 42.30734 -73.99949 13501 ft 397 kts 202°
2026-05-04 23:45 42.28132 -74.01111 12959 ft 391 kts 202°
2026-05-04 23:46 42.25563 -74.02260 12439 ft 386 kts 202°
2026-05-04 23:46 42.23021 -74.03388 11913 ft 381 kts 202°
2026-05-04 23:46 42.20548 -74.04478 11422 ft 377 kts 202°
2026-05-04 23:46 42.18072 -74.05570 10915 ft 373 kts 202°
2026-05-04 23:47 42.15617 -74.06657 10452 ft 369 kts 202°
2026-05-04 23:47 42.13182 -74.07731 9962 ft 367 kts 202°
2026-05-04 23:47 42.10768 -74.08793 9453 ft 364 kts 202°
2026-05-04 23:47 42.08368 -74.09849 8931 ft 361 kts 202°
2026-05-04 23:48 42.05992 -74.10892 8368 ft 357 kts 201°
2026-05-04 23:48 42.03668 -74.11912 8265 ft 344 kts 202°
2026-05-04 23:48 42.01374 -74.12921 8331 ft 353 kts 202°
2026-05-04 23:48 41.99007 -74.13966 8340 ft 362 kts 201°
2026-05-04 23:49 41.96611 -74.15016 8348 ft 361 kts 201°
2026-05-04 23:49 41.94224 -74.16058 8354 ft 360 kts 201°
2026-05-04 23:49 41.91843 -74.17101 8344 ft 360 kts 201°
2026-05-04 23:49 41.89459 -74.18143 8336 ft 360 kts 201°
2026-05-04 23:50 41.87078 -74.19183 8347 ft 360 kts 201°
2026-05-04 23:50 41.84690 -74.20226 8336 ft 361 kts 202°
2026-05-04 23:50 41.82301 -74.21268 8336 ft 361 kts 201°
2026-05-04 23:50 41.79906 -74.22312 8354 ft 362 kts 201°
2026-05-04 23:51 41.77510 -74.23357 8348 ft 362 kts 201°
2026-05-04 23:51 41.75107 -74.24404 8355 ft 363 kts 201°
2026-05-04 23:51 41.72704 -74.25450 8353 ft 363 kts 201°
2026-05-04 23:51 41.70301 -74.26495 8347 ft 364 kts 201°
2026-05-04 23:52 41.67893 -74.27540 8354 ft 363 kts 202°
2026-05-04 23:52 41.65487 -74.28585 8355 ft 363 kts 201°
2026-05-04 23:52 41.63117 -74.29614 8353 ft 363 kts 201°
2026-05-04 23:52 41.60712 -74.30657 8355 ft 362 kts 201°
2026-05-04 23:53 41.58364 -74.31671 8340 ft 347 kts 201°
2026-05-04 23:53 41.56121 -74.32636 8335 ft 330 kts 202°
2026-05-04 23:53 41.53982 -74.33559 8334 ft 314 kts 202°
2026-05-04 23:53 41.51953 -74.34435 8332 ft 299 kts 202°
2026-05-04 23:54 41.49999 -74.35280 8352 ft 294 kts 202°
2026-05-04 23:54 41.48045 -74.36129 8365 ft 293 kts 202°
2026-05-04 23:54 41.46117 -74.36963 8367 ft 290 kts 202°
2026-05-04 23:54 41.44204 -74.37788 8365 ft 288 kts 202°
2026-05-04 23:55 41.42306 -74.38605 8356 ft 283 kts 202°
2026-05-04 23:55 41.40460 -74.39397 8289 ft 273 kts 202°
2026-05-04 23:55 41.36921 -74.40920 7825 ft 263 kts 202°
2026-05-04 23:56 41.35195 -74.41663 7583 ft 259 kts 202°
2026-05-04 23:56 41.33496 -74.42394 7303 ft 255 kts 202°
2026-05-04 23:56 41.31823 -74.43112 7052 ft 251 kts 202°
2026-05-04 23:56 41.30188 -74.43814 6813 ft 249 kts 202°
2026-05-04 23:57 41.28602 -74.44620 6552 ft 239 kts 207°
2026-05-04 23:57 41.26952 -74.45087 6279 ft 249 kts 180°
2026-05-04 23:57 41.25265 -74.44358 6128 ft 265 kts 153°
2026-05-04 23:57 41.23755 -74.42906 6104 ft 269 kts 148°
2026-05-04 23:58 41.22295 -74.41403 6132 ft 269 kts 148°
2026-05-04 23:58 41.20827 -74.39863 6083 ft 268 kts 147°
2026-05-04 23:58 41.19352 -74.38345 6029 ft 268 kts 148°
2026-05-04 23:58 41.17889 -74.36825 6026 ft 267 kts 147°
2026-05-04 23:59 41.16433 -74.35317 6022 ft 265 kts 147°
2026-05-04 23:59 41.14959 -74.33822 6019 ft 268 kts 147°
2026-05-04 23:59 41.13470 -74.32316 6020 ft 270 kts 147°
2026-05-04 23:59 41.11959 -74.30802 5846 ft 274 kts 147°
2026-05-05 00:00 41.10444 -74.29284 5585 ft 271 kts 147°
2026-05-05 00:00 41.09941 -74.28782 5502 ft 268 kts 147°
2026-05-05 00:00 41.07514 -74.26341 5140 ft 257 kts 148°
2026-05-05 00:00 41.06120 -74.24915 5081 ft 251 kts 147°
2026-05-05 00:01 41.04735 -74.23489 5056 ft 254 kts 147°
2026-05-05 00:01 41.03321 -74.22047 5057 ft 260 kts 147°
2026-05-05 00:01 41.01873 -74.20587 5057 ft 263 kts 147°
2026-05-05 00:01 41.00420 -74.19129 4976 ft 262 kts 148°
2026-05-05 00:02 40.98963 -74.17657 4618 ft 265 kts 147°
2026-05-05 00:02 40.97493 -74.16175 4221 ft 265 kts 148°
2026-05-05 00:02 40.96034 -74.14702 3916 ft 262 kts 147°
2026-05-05 00:02 40.94593 -74.13251 3514 ft 258 kts 147°
2026-05-05 00:03 40.93199 -74.11836 3139 ft 247 kts 147°
2026-05-05 00:03 40.91879 -74.10487 3032 ft 228 kts 147°
2026-05-05 00:03 40.91065 -74.09646 3047 ft 219 kts 147°
2026-05-05 00:03 40.89530 -74.08038 3045 ft 203 kts 147°
2026-05-05 00:04 40.88813 -74.07284 3053 ft 196 kts 147°
2026-05-05 00:04 40.87741 -74.06140 3067 ft 200 kts 148°
2026-05-05 00:04 40.86514 -74.05455 3027 ft 188 kts 183°
2026-05-05 00:04 40.85328 -74.05950 3051 ft 177 kts 215°
2026-05-05 00:05 40.84282 -74.06822 3056 ft 179 kts 211°
2026-05-05 00:05 40.83169 -74.07584 2850 ft 178 kts 208°
2026-05-05 00:05 40.81737 -74.08507 2541 ft 169 kts 208°
2026-05-05 00:05 40.81026 -74.08962 2394 ft 166 kts 207°
2026-05-05 00:06 40.80003 -74.09616 2193 ft 161 kts 208°
2026-05-05 00:06 40.79043 -74.10228 1971 ft 147 kts 208°
2026-05-05 00:06 40.78168 -74.10786 1797 ft 135 kts 209°
2026-05-05 00:06 40.77333 -74.11322 1611 ft 134 kts 211°
2026-05-05 00:07 40.76455 -74.11884 1447 ft 143 kts 207°
2026-05-05 00:07 40.75557 -74.12456 1242 ft 142 kts 207°
2026-05-05 00:07 40.74679 -74.13016 1040 ft 138 kts 207°
2026-05-05 00:07 40.73783 -74.13586 888 ft 145 kts 207°
2026-05-05 00:08 40.72880 -74.14151 716 ft 139 kts 204°
2026-05-05 00:08 40.72007 -74.14729 503 ft 140 kts 207°
2026-05-05 00:08 40.71147 -74.15265 327 ft 141 kts 204°
2026-05-05 00:08 40.70286 -74.15790 171 ft 140 kts 207°
2026-05-05 00:09 40.69420 -74.16371 59 ft 136 kts 207°
2026-05-05 00:09 40.68645 -74.16857 27 ft 100 kts 205°
2026-05-05 00:09 40.68250 -74.17126 26 ft 41 kts 206°
2026-05-05 00:09 40.68030 -74.17279 31 ft 32 kts 219°
2026-05-05 00:10 40.67969 -74.17396 28 ft 0 kts 251°
2026-05-05 00:10 40.67958 -74.17454 30 ft 13 kts 261°
2026-05-05 00:11 40.67983 -74.17631 30 ft 27 kts 294°
2026-05-05 00:11 40.68056 -74.17822 27 ft 23 kts 305°
2026-05-05 00:11 40.68164 -74.17827 27 ft 10 kts 23°
2026-05-05 00:11 40.68231 -74.17789 27 ft 10 kts 23°
2026-05-05 00:12 40.68297 -74.17750 27 ft 10 kts 25°
2026-05-05 00:12 40.68364 -74.17709 27 ft 10 kts 25°
2026-05-05 00:12 40.68426 -74.17666 27 ft 10 kts 29°
2026-05-05 00:12 40.68490 -74.17618 27 ft 10 kts 29°
2026-05-05 00:13 40.68556 -74.17575 27 ft 11 kts 24°
2026-05-05 00:13 40.68624 -74.17535 27 ft 11 kts 24°
2026-05-05 00:13 40.68689 -74.17495 27 ft 11 kts 25°
2026-05-05 00:13 40.68755 -74.17453 27 ft 11 kts 26°
2026-05-05 00:14 40.68821 -74.17410 27 ft 11 kts 26°
2026-05-05 00:14 40.68886 -74.17368 27 ft 11 kts 26°
2026-05-05 00:14 40.68952 -74.17326 27 ft 11 kts 26°
2026-05-05 00:14 40.69018 -74.17283 27 ft 11 kts 26°
2026-05-05 00:15 40.69084 -74.17242 27 ft 11 kts 25°
2026-05-05 00:15 40.69106 -74.17228 27 ft 11 kts 25°
2026-05-05 00:15 40.69118 -74.17221 27 ft 11 kts 25°
2026-05-05 00:15 40.69183 -74.17181 27 ft 11 kts 25°
2026-05-05 00:16 40.69250 -74.17140 26 ft 11 kts 25°
2026-05-05 00:16 40.69316 -74.17099 27 ft 11 kts 21°
2026-05-05 00:16 40.69387 -74.17075 27 ft 11 kts
2026-05-05 00:16 40.69461 -74.17074 27 ft 11 kts 358°
2026-05-05 00:17 40.69532 -74.17086 27 ft 11 kts 347°
2026-05-05 00:17 40.69605 -74.17109 27 ft 11 kts 341°
2026-05-05 00:17 40.69672 -74.17150 27 ft 11 kts 332°
2026-05-05 00:17 40.69734 -74.17204 27 ft 11 kts 324°
2026-05-05 00:18 40.69790 -74.17269 27 ft 11 kts 314°
2026-05-05 00:18 40.69839 -74.17342 27 ft 11 kts 309°
2026-05-05 00:18 40.69877 -74.17425 27 ft 11 kts 295°
2026-05-05 00:18 40.69894 -74.17522 27 ft 11 kts 270°
2026-05-05 00:19 40.69869 -74.17591 27 ft 2 kts 230°
2026-05-05 00:19 40.69856 -74.17608 27 ft 3 kts 225°
2026-05-05 00:19 40.69843 -74.17626 27 ft 3 kts 225°
2026-05-05 00:19 40.69829 -74.17643 27 ft 3 kts 222°
2026-05-05 00:20 40.69814 -74.17661 27 ft 3 kts 220°
2026-05-05 00:20 40.69797 -74.17679 27 ft 4 kts 216°
2026-05-05 00:20 40.69747 -74.17691 27 ft 8 kts 179°
2026-05-05 00:20 40.69713 -74.17687 27 ft 2 kts 172°
2026-05-05 00:21 40.69702 -74.17684 27 ft 2 kts 170°
2026-05-05 00:21 40.69690 -74.17681 27 ft 2 kts 168°
2026-05-05 00:21 40.69678 -74.17678 27 ft 2 kts 168°
2026-05-05 00:21 40.69677 -74.17677 27 ft 0 kts 168°